Other Surface Observations
Issued by NWS

Home | Current Version | Previous Version | Text Only | Print | Product List | Glossary On
Versions: 1 2 3 4 5 6 7 8 9 10 11 12 13 14 15 16 17 18 19 20 21 22 23 24 25 26 27 28 29 30 31 32 33 34 35 36 37 38 39 40 41 42 43 44 45 46 47 48 49 50
000
SXUS52 KTAE 281405
OSOTAE
OSOTAE
North Florida/South Alabama/Southwest Georgia Weather Roundup
National Weather Service Tallahassee Florida
900 AM EST SAT FEB 28 2015

Note: "fair" indicates few or no clouds below 12,000 feet with no
significant weather and/or obstructions to visibility.

!FLZ017-115-028-034-025-281500
...North Florida...

CITY           SKY/WX    TMP DP  RH WIND       PRES   REMARKS
TALLAHASSEE    CLOUDY    48  43  82 NE7       30.43R WCI  45
APALACHICOLA   CLOUDY    51  42  71 NE12      30.40R
PERRY          CLOUDY    49  45  87 NE9       30.41R WCI  45
CROSS CITY       N/A     52  48  86 NE9       30.39R
JACKSONVILLE   CLOUDY    53  52  96 NE12      30.42R
$$

!FLZ112-006-005-002-011-281500
...Florida Panhandle...

CITY           SKY/WX    TMP DP  RH WIND       PRES   REMARKS
MARIANNA       CLOUDY    46  40  79 NE13      30.44R WCI  40
BONIFAY        CLOUDY    46  36  68 NE10      30.46R WCI  41
PANAMA CITY NW CLOUDY    47  40  76 NE7       30.41R WCI  44
TYNDALL AFB    CLOUDY    48  41  76 NE9       30.40R WCI  44
TYND DRONE APT PTSUNNY   50  43  76 NE12      30.40R
DE FUNIAK SPR  PTSUNNY   42  33  68 NE9G16    30.44R WCI  37
EGLIN AFB      PTSUNNY   46  34  62 NE12      30.42R WCI  40
DESTIN         PTSUNNY   48  36  63 NE10G17   30.43R WCI  43
HURLBURT       NOT AVBL
CRESTVIEW      MOSUNNY   45  32  60 NE9       30.46R WCI  40
PENSACOLA      MOSUNNY   42  31  64 N10       30.43R WCI  36
$$

!ALZ063-066-281500
...South Alabama...

CITY           SKY/WX    TMP DP  RH WIND       PRES   REMARKS
DOTHAN         MOSUNNY   44  34  67 NE13      30.49R WCI  38
OZARK CAIRNS   PTSUNNY   43  31  63 NE13      30.46R WCI  36
FT RUCKER HELI MOSUNNY   44  31  60 NE6       30.46R WCI  41
RUCKER HELI 3  PTSUNNY   43  32  66 NE9G16    30.47R WCI  37
RUCKER HELI 2  FAIR      42  30  62 NE12      30.46R WCI  36
FLORALA APT    MOSUNNY   44  31  60 NE9       30.46R WCI  39
ANDALUSIA      MOSUNNY   46  30  53 E9        30.46R WCI  41
TROY           PTSUNNY   40  27  59 NE8       30.50R WCI  34
EUFALA         FAIR      43  30  60 VRB5      30.50R WCI  40
MOBILE         PTSUNNY   37  26  64 NE10      30.45R WCI  30
$$

!GAZ120>161-281500
...Southwest and South Central Georgia...

CITY           SKY/WX    TMP DP  RH WIND       PRES   REMARKS
THOMASVILLE    DRIZZLE   46  46 100 NE10      30.46R WCI  41
BAINBRIDGE     PTSUNNY   48  41  76 NE9       30.45S WCI  44
MOODY AFB      MIX PCPN  45  43  93 NE7       30.44R FOG     WCI  41
VALDOSTA       CLOUDY    46  44  93 NE10      30.45R WCI  41
MOULTRIE       LGT RAIN  46  41  81 E6        30.46R WCI  43
BLAKELY        PTSUNNY   46  37  71 NE7       30.48R WCI  43
ALBANY         CLOUDY    46  37  71 NE13      30.50R WCI  40
TIFTON         CLOUDY    46  37  71 NE9       30.47R WCI  41
FITZGERALD     CLOUDY    47  36  65 NE12      30.52R WCI  41
CORDELE        CLOUDY    45  36  71 NE14G20   30.52S WCI  38
AMERICUS       FAIR      43  36  75 E10G17    30.52S WCI  37
HOMERVILLE     RAIN      46  46 100 NE8       30.47R WCI  42
$$

!GMZ750-755-770-775-281500
...Coastal and Buoy Obs...

STATION/POSITION TIME  TEMP    WIND        PRES    VSBY  WAVE
                       AIR SEA DIR/SP/G                  HT/PER
                 (UTC) (F)     (DEG/KT/KT) (MB)    (MI)  (FT/S)
KEATON BEACH     1400   50      40/  7/ 10 1029.2R
CEDAR KEY        1256   54      40/ 10/ 13 1028.2R
C TOWER          1400   52      60/ 23/ 24 1028.6R
APALACHICOLA BUO 1400   58 65   50/ 19/ 23 1027.3R         6/ 6
PANAMA CITY BUOY NOT AVBL
MOBILE BUOY      1340   60 69   70/ 19/ 23 1027.7F         8/ 7
ORANGE BCH AL BU 1400   47 62   40/ 19/ 21 1029.1R         5/ 6
$$



USA.gov is the U.S. government's official web portal to all federal, state and local government web resources and services.